DateTimeUTC,F1_A11,F1_S11,BsB_S11,BsG_S11,BsR_S11,BbsB_S11,BbsG_S11,BbsR_S11,BaB_A11,BaG_A11,BaR_A11,Tu_S11,T_S11,Uu_S11,U_S11,P_S11,T1_A11
2021-10-25T18:00:00Z,00000200,21000000,,,,,,,-000.26,0000.11,-000.33,17.1,24.2,,00.0,0635.1,30.9
2021-10-25T18:01:00Z,00000200,21000000,,,,,,,0000.03,-000.16,-000.08,17.1,24.2,,00.0,0635.1,30.9
2021-10-25T18:02:00Z,00000200,21000000,,,,,,,0000.15,0000.16,0000.28,17.1,24.2,,00.0,0635.1,30.9
2021-10-25T18:03:00Z,00000200,61000000,,,,,,,0000.21,0000.40,0000.25,17.1,24.2,,00.0,0635.1,30.9
2021-10-25T18:04:00Z,00000200,41000000,0000.49,0000.17,-000.01,0000.35,0000.01,-000.10,0000.17,0000.26,0000.32,17.3,24.1,,00.0,0635.9,31.0
2021-10-25T18:05:00Z,00000200,01000000,0000.12,0000.27,0000.42,0000.09,0000.15,0000.21,0000.41,-000.27,0000.02,17.4,24.1,,00.0,0636.0,31.0
2021-10-25T18:06:00Z,00000200,01000000,0000.80,0000.14,-000.08,0000.43,-000.14,-000.35,-000.11,0000.45,0000.27,17.5,24.1,,00.0,0636.0,31.0
2021-10-25T18:07:00Z,00000200,01000000,0000.12,0000.27,0000.05,-000.73,-000.10,-000.28,0000.16,-000.07,-000.15,17.6,24.1,,00.0,0636.0,31.0
2021-10-25T18:08:00Z,00000200,01000000,0000.50,0000.53,-000.12,-000.29,0000.16,0000.19,-000.07,0000.41,0000.53,17.7,24.1,,00.0,0636.0,31.0
2021-10-25T18:09:00Z,00000200,01000000,0000.16,0000.32,0000.28,-000.58,0000.15,-000.11,0000.54,0000.61,-000.19,17.7,24.1,,00.0,0636.0,31.0
2021-10-25T18:10:00Z,00000200,01000000,0000.10,0000.18,0000.30,0000.19,0000.15,-000.16,-000.06,-000.59,0000.20,17.6,24.1,,00.0,0636.0,31.0
2021-10-25T18:11:00Z,00000200,01000000,0000.63,0000.68,0000.22,-000.50,0000.17,-000.06,-000.16,-000.30,-000.48,17.5,24.1,,00.0,0636.0,31.0
2021-10-25T18:12:00Z,00000200,01000000,0000.20,0000.18,0000.07,-000.15,0000.22,0000.23,-000.02,0000.37,0000.18,17.4,24.0,,00.0,0636.0,30.9
2021-10-25T18:13:00Z,00000200,01000000,0000.32,0000.52,0000.05,-000.25,0000.38,-000.21,-000.08,0000.05,0000.07,17.4,24.0,,00.0,0636.0,30.9
2021-10-25T18:14:00Z,00000200,01000000,0000.14,0000.45,0000.25,0000.03,-000.02,0000.23,0000.32,-000.40,-000.14,17.3,24.0,,00.0,0636.0,30.9
2021-10-25T18:15:00Z,00000200,01000000,-000.01,0000.11,-000.11,-000.60,0000.28,0000.32,0000.14,-000.02,-000.07,17.3,23.9,,00.0,0636.1,30.9
2021-10-25T18:16:00Z,00000200,01000000,0000.09,0000.32,-000.06,0000.10,0000.36,-000.14,-000.11,0000.38,-000.05,17.2,23.9,,00.0,0636.1,30.9
2021-10-25T18:17:00Z,00000200,01000000,0001.15,0000.33,0000.14,0000.38,0000.14,-000.00,-000.31,0000.41,0000.22,17.2,23.9,,00.0,0636.1,30.9
2021-10-25T18:18:00Z,00000200,01000000,0000.94,0000.47,0000.14,-000.29,0000.34,-000.08,0000.38,-000.48,0000.17,17.3,23.9,,00.0,0636.2,30.9
2021-10-25T18:19:00Z,00000200,01000000,0000.43,0000.14,-000.11,-000.67,-000.11,-000.10,0000.09,0000.06,0000.09,17.3,23.9,,00.0,0636.2,30.9
2021-10-25T18:20:00Z,00000200,01000000,0000.26,0000.45,0000.28,0000.03,-000.28,0000.01,0000.16,0000.80,0000.40,17.4,24.0,,00.0,0636.2,31.0
2021-10-25T18:21:00Z,00000200,01000000,0000.78,0000.52,0000.33,-000.17,0000.06,0000.19,0000.30,0000.11,0000.10,17.5,24.0,,00.0,0636.3,31.0
2021-10-25T18:22:00Z,00000200,01000000,0000.35,0000.32,-000.13,0000.08,0000.19,-000.18,0000.08,-000.18,-000.19,17.6,24.0,,00.0,0636.3,31.0
2021-10-25T18:23:00Z,00000200,01000000,0001.08,0000.47,-000.01,0000.03,0000.13,-000.13,0000.10,0000.10,0000.16,17.6,24.0,,00.0,0636.3,31.0
2021-10-25T18:24:00Z,00000200,01000000,0000.51,0000.56,0000.23,-000.23,0000.09,0000.08,-000.06,0000.19,-000.03,17.6,24.1,,00.0,0636.4,31.0
2021-10-25T18:25:00Z,00000200,01000000,0000.49,0000.49,0000.07,-000.23,-000.03,-000.05,0000.00,0000.33,0000.32,17.6,24.1,,00.0,0636.4,31.0
2021-10-25T18:26:00Z,00000200,01000000,0000.26,0000.52,0000.27,-000.19,0000.08,-000.02,0000.20,-000.51,-000.24,17.5,24.1,,00.0,0636.4,31.0
2021-10-25T18:27:00Z,00000200,01000000,-000.07,0000.48,0000.05,-000.73,-000.01,-000.14,-000.41,0000.01,-000.34,17.4,24.0,,00.0,0636.4,30.9
2021-10-25T18:28:00Z,00000200,01000000,0000.38,0000.19,-000.22,-000.38,0000.10,-000.28,0000.14,0000.13,0000.53,17.4,24.0,,00.0,0636.4,30.9
2021-10-25T18:29:00Z,00000200,01000000,0000.04,0000.23,0000.23,-000.28,-000.02,0000.02,0000.30,0000.25,0000.13,17.3,23.9,,00.0,0636.4,30.9
2021-10-25T18:30:00Z,00000200,01000000,0000.09,0000.07,0000.13,-000.12,0000.18,-000.50,0000.33,-000.26,0000.01,17.2,23.9,,00.0,0636.5,30.9
2021-10-25T18:31:00Z,00000200,01000000,0000.91,0000.39,0000.07,-000.80,0000.20,-000.29,-000.03,0000.02,-000.33,17.2,23.9,,00.0,0636.5,30.9
2021-10-25T18:32:00Z,00000200,01000000,0001.50,0000.33,0000.27,0000.15,-000.03,0000.25,-000.14,0000.39,0000.58,17.2,23.9,,00.0,0636.5,30.9
2021-10-25T18:33:00Z,00000200,01000000,0000.76,0000.03,0000.09,-000.57,0000.03,-000.28,0000.54,0000.36,0000.32,17.3,23.9,,00.0,0636.5,30.9
2021-10-25T18:34:00Z,00000200,01000000,0000.79,0000.32,0000.19,0000.40,-000.05,0000.26,-000.10,-000.08,0000.12,17.3,23.9,,00.0,0636.5,30.9
2021-10-25T18:35:00Z,00000200,01000000,-000.07,0000.10,0000.14,-000.23,-000.03,-000.11,0000.40,0000.12,0000.06,17.4,23.9,,00.0,0636.5,30.9
2021-10-25T18:36:00Z,00000200,01000000,0001.03,0000.47,0000.03,-000.45,0000.29,0000.24,-000.30,-000.11,0000.01,17.5,23.9,,00.0,0636.5,31.0
2021-10-25T18:37:00Z,00000200,01000000,0000.26,0000.31,-000.04,0000.65,0000.11,0000.04,0000.39,0000.26,-000.05,17.5,24.0,,00.0,0636.5,31.0
2021-10-25T18:38:00Z,00000200,01000000,-000.04,0000.57,0000.40,-000.14,0000.43,-000.09,-000.11,0000.31,0000.01,17.6,24.0,,00.0,0636.6,31.0
2021-10-25T18:39:00Z,00000200,01000000,0000.17,0000.47,0000.16,-000.03,0000.35,-000.22,0000.20,-000.05,0000.04,17.7,24.1,,00.0,0636.6,31.0
2021-10-25T18:40:00Z,00000200,01000000,-000.27,0000.18,-000.16,0000.78,-000.22,-000.09,0000.24,-000.30,-000.01,17.6,24.1,,00.0,0636.6,31.0
2021-10-25T18:41:00Z,00000200,01000000,0000.32,0000.39,0000.38,-000.52,-000.16,0000.02,-000.25,0000.56,-000.03,17.6,24.0,,00.0,0636.6,31.0
2021-10-25T18:42:00Z,00000200,01000000,0000.30,0000.45,0000.11,-000.29,0000.08,-000.04,-000.21,-000.28,-000.04,17.5,24.0,,00.0,0636.6,31.0
2021-10-25T18:43:00Z,00000200,01000000,0000.06,0000.39,0000.11,-000.05,-000.04,0000.12,0000.36,0000.17,0000.55,17.5,24.0,,00.0,0636.6,30.9
2021-10-25T18:44:00Z,00000200,01000000,0000.52,0000.25,0000.14,0000.40,0000.09,-000.20,0000.31,0000.03,-000.06,17.4,24.0,,00.0,0636.6,30.9
2021-10-25T18:45:00Z,00000200,01000000,0000.57,0000.27,0000.27,0000.19,0000.28,0000.03,0000.35,-000.10,-000.14,17.3,23.9,,00.0,0636.6,30.9
2021-10-25T18:46:00Z,00000200,01000000,0001.11,0000.42,0000.12,0000.01,0000.13,-000.04,-000.30,-000.02,0000.19,17.3,23.9,,00.0,0636.7,30.9
2021-10-25T18:47:00Z,00000200,01000000,0001.15,0000.31,-000.37,-000.13,0000.18,-000.30,-000.07,0000.39,0000.18,17.3,23.9,,00.0,0636.7,30.9
2021-10-25T18:48:00Z,00000200,01000000,-000.03,0000.31,-000.19,-000.02,0000.02,-000.11,0000.60,0000.50,0000.18,17.3,23.9,,00.0,0636.7,30.9
2021-10-25T18:49:00Z,00000200,01000000,0000.02,0000.41,0000.23,0000.24,0000.24,0000.03,0000.10,0000.06,0000.03,17.4,23.9,,00.0,0636.7,30.9
2021-10-25T18:50:00Z,00000200,01000000,0000.24,0000.26,0000.11,-000.95,0000.10,0000.24,0000.04,0000.20,0000.47,17.4,23.9,,00.0,0636.7,31.0
2021-10-25T18:51:00Z,00000200,01000000,0001.60,0000.01,0000.22,0000.10,0000.26,0000.14,-000.02,-000.03,-000.00,17.5,24.0,,00.0,0636.7,31.0
2021-10-25T18:52:00Z,00000200,01000000,0000.48,0000.30,0000.06,-000.61,0000.10,-000.27,0000.47,0000.25,0000.11,17.6,24.0,,00.0,0636.7,31.0
2021-10-25T18:53:00Z,00000200,01000000,0000.56,0000.06,0000.13,-000.43,-000.12,0000.01,-000.07,0000.19,0000.06,17.7,24.1,,00.0,0636.7,31.0
2021-10-25T18:54:00Z,00000200,01000000,0001.04,0000.43,-000.06,0000.06,0000.24,0000.28,0000.19,0000.22,0000.12,17.7,24.1,,00.0,0636.6,31.0
2021-10-25T18:55:00Z,00000200,01000000,0000.39,0000.29,0000.16,0000.59,0000.10,-000.03,0000.36,0000.06,0000.11,17.7,24.1,,00.0,0636.6,31.0
2021-10-25T18:56:00Z,00000200,01000000,0001.37,0000.11,0000.14,0000.72,0000.20,-000.05,-000.43,-000.25,-000.25,17.6,24.1,,00.0,0636.6,31.0
2021-10-25T18:57:00Z,00000200,41000000,,,,,,,0000.76,0000.42,0000.23,17.6,24.1,,00.0,0636.6,30.9
2021-10-25T18:58:00Z,00000200,61000000,,,,,,,-000.40,-000.22,-000.36,17.2,24.1,,00.0,0635.7,30.9
2021-10-25T18:59:00Z,00000200,21000000,,,,,,,-000.64,-000.52,0000.14,17.2,24.2,,00.0,0635.7,30.9
